EXS3107 EGKK-LEAL

Flight info

Callsign EXS3107
Flight time N/A
Altitude 35000
Route BOGNA L612 BENBO UY47 DRAKE L151 SITET UN859 SOPIL/N0436F390 DCT BALAN DCT LMG DCT PIMQO DCT AGN DCT ANETO DCT TURUV DCT GRAUS DCT LOBAR DCT SEROX DCT CASPE DCT MLA DCT CRETA DCT RIMES DCT SAURA DCT TATOS DCT PLANA DCT VLC
Aircraft A20N/M-SDE2E3FGHIRWXY/LB1

Departure

Time 2026-04-15 16:34
Airport London Gatwick Airport (EGKK)

Arrival

Time N/A
Airport Alicante-Elche Miguel Hernández Airport (LEAL)
Time Latitude Longitude Altitude Speed Heading
2026-04-15 16:12 51.15846 -0.17635 204 ft 0 kts 347°
2026-04-15 16:20 51.15835 -0.17631 213 ft 2 kts 349°
2026-04-15 16:20 51.15818 -0.17626 204 ft 2 kts 351°
2026-04-15 16:20 51.15802 -0.17623 204 ft 2 kts 356°
2026-04-15 16:20 51.15785 -0.17622 204 ft 2 kts 358°
2026-04-15 16:21 51.15769 -0.17618 208 ft 2 kts 348°
2026-04-15 16:21 51.15752 -0.17616 209 ft 2 kts 27°
2026-04-15 16:21 51.15743 -0.17630 212 ft 1 kts 71°
2026-04-15 16:21 51.15743 -0.17632 212 ft 0 kts 73°
2026-04-15 16:23 51.15743 -0.17630 212 ft 1 kts 73°
2026-04-15 16:24 51.15751 -0.17589 216 ft 6 kts 75°
2026-04-15 16:24 51.15739 -0.17511 214 ft 9 kts 133°
2026-04-15 16:24 51.15670 -0.17483 207 ft 12 kts 169°
2026-04-15 16:24 51.15574 -0.17450 215 ft 16 kts 167°
2026-04-15 16:25 51.15489 -0.17419 204 ft 8 kts 167°
2026-04-15 16:25 51.15431 -0.17397 213 ft 0 kts 167°
2026-04-15 16:26 51.15414 -0.17391 206 ft 6 kts 167°
2026-04-15 16:26 51.15362 -0.17369 212 ft 10 kts 164°
2026-04-15 16:26 51.15313 -0.17336 210 ft 3 kts 132°
2026-04-15 16:27 51.15312 -0.17286 204 ft 6 kts 81°
2026-04-15 16:27 51.15321 -0.17198 207 ft 9 kts 77°
2026-04-15 16:27 51.15338 -0.17081 208 ft 12 kts 77°
2026-04-15 16:27 51.15357 -0.16952 204 ft 6 kts 77°
2026-04-15 16:28 51.15368 -0.16863 207 ft 10 kts 89°
2026-04-15 16:28 51.15368 -0.16844 204 ft 3 kts 92°
2026-04-15 16:28 51.15348 -0.16808 207 ft 6 kts 152°
2026-04-15 16:28 51.15298 -0.16812 215 ft 9 kts 195°
2026-04-15 16:29 51.15283 -0.16816 208 ft 0 kts 185°
2026-04-15 16:29 51.15273 -0.16818 209 ft 5 kts 185°
2026-04-15 16:30 51.15214 -0.16816 208 ft 11 kts 170°
2026-04-15 16:30 51.15152 -0.16795 204 ft 4 kts 168°
2026-04-15 16:30 51.15121 -0.16813 212 ft 6 kts 229°
2026-04-15 16:30 51.15112 -0.16847 204 ft 0 kts 256°
2026-04-15 16:33 51.15112 -0.16848 204 ft 1 kts 256°
2026-04-15 16:33 51.15088 -0.17017 213 ft 47 kts 258°
2026-04-15 16:34 51.14954 -0.18010 216 ft 132 kts 257°
2026-04-15 16:34 51.14723 -0.19686 660 ft 157 kts 258°
2026-04-15 16:34 51.14518 -0.21389 1619 ft 163 kts 259°
2026-04-15 16:34 51.14294 -0.23215 2481 ft 175 kts 258°
2026-04-15 16:35 51.14000 -0.25209 3237 ft 193 kts 256°
2026-04-15 16:35 51.13666 -0.27388 3841 ft 212 kts 257°
2026-04-15 16:35 51.13314 -0.29774 4431 ft 230 kts 257°
2026-04-15 16:35 51.12947 -0.32384 4845 ft 244 kts 258°
2026-04-15 16:36 51.12599 -0.34927 4935 ft 230 kts 258°
2026-04-15 16:36 51.12259 -0.37451 4952 ft 235 kts 258°
2026-04-15 16:36 51.11740 -0.39883 4951 ft 233 kts 237°
2026-04-15 16:36 51.10560 -0.41562 5031 ft 234 kts 205°
2026-04-15 16:37 51.08963 -0.41988 5410 ft 238 kts 176°
2026-04-15 16:37 51.07290 -0.41755 6094 ft 239 kts 175°
2026-04-15 16:37 51.05644 -0.41531 6844 ft 242 kts 176°
2026-04-15 16:37 51.03955 -0.41311 7597 ft 245 kts 176°
2026-04-15 16:38 51.02248 -0.41094 8353 ft 247 kts 176°
2026-04-15 16:38 51.00524 -0.40877 9104 ft 250 kts 176°
2026-04-15 16:38 50.98770 -0.40657 9716 ft 255 kts 176°
2026-04-15 16:38 50.96967 -0.40431 9949 ft 273 kts 176°
2026-04-15 16:39 50.94962 -0.40181 10236 ft 301 kts 176°
2026-04-15 16:39 50.92872 -0.39760 10906 ft 313 kts 165°
2026-04-15 16:39 50.90768 -0.38774 11788 ft 318 kts 163°
2026-04-15 16:39 50.88646 -0.37716 12660 ft 322 kts 163°
2026-04-15 16:40 50.86498 -0.36639 13543 ft 325 kts 163°
2026-04-15 16:40 50.84330 -0.35563 14414 ft 328 kts 163°
2026-04-15 16:40 50.82147 -0.34492 15295 ft 329 kts 163°
2026-04-15 16:40 50.79956 -0.33425 16166 ft 331 kts 163°
2026-04-15 16:41 50.77745 -0.32352 16975 ft 333 kts 163°
2026-04-15 16:41 50.75529 -0.31280 17807 ft 333 kts 163°
2026-04-15 16:41 50.73304 -0.30204 18540 ft 338 kts 163°
2026-04-15 16:41 50.71005 -0.29094 18867 ft 355 kts 163°
2026-04-15 16:42 50.68574 -0.27921 18990 ft 376 kts 163°
2026-04-15 16:42 50.66036 -0.26698 19000 ft 395 kts 163°
2026-04-15 16:42 50.63399 -0.25426 19041 ft 396 kts 163°
2026-04-15 16:42 50.60767 -0.24158 19355 ft 396 kts 163°
2026-04-15 16:43 50.58120 -0.22885 19966 ft 399 kts 163°
2026-04-15 16:43 50.55468 -0.21611 20778 ft 397 kts 163°
2026-04-15 16:43 50.52834 -0.20346 21609 ft 395 kts 163°
2026-04-15 16:43 50.50215 -0.19092 22403 ft 393 kts 163°
2026-04-15 16:44 50.47571 -0.17827 22818 ft 403 kts 163°
2026-04-15 16:44 50.44842 -0.16523 22972 ft 417 kts 163°
2026-04-15 16:44 50.42048 -0.15189 23000 ft 421 kts 163°
2026-04-15 16:44 50.39247 -0.13853 22999 ft 420 kts 163°
2026-04-15 16:45 50.36454 -0.12522 23000 ft 420 kts 163°
2026-04-15 16:45 50.33655 -0.11191 23000 ft 420 kts 163°
2026-04-15 16:45 50.30860 -0.09862 23001 ft 420 kts 163°
2026-04-15 16:45 50.28065 -0.08536 23185 ft 420 kts 163°
2026-04-15 16:46 50.25262 -0.07207 23656 ft 423 kts 163°
2026-04-15 16:46 50.22443 -0.05873 24276 ft 424 kts 163°
2026-04-15 16:46 50.19616 -0.04536 24903 ft 424 kts 163°
2026-04-15 16:46 50.16827 -0.03219 25518 ft 424 kts 163°
2026-04-15 16:47 50.13967 -0.01870 26151 ft 423 kts 163°
2026-04-15 16:47 50.11189 -0.00561 26768 ft 422 kts 163°
2026-04-15 16:47 50.08371 0.00740 27392 ft 421 kts 165°
2026-04-15 16:47 50.05551 0.01880 28016 ft 418 kts 166°
2026-04-15 16:48 50.02730 0.02953 28642 ft 415 kts 167°
2026-04-15 16:48 49.99937 0.04012 29258 ft 412 kts 167°
2026-04-15 16:48 49.97166 0.05076 29880 ft 408 kts 166°
2026-04-15 16:48 49.94431 0.06139 30500 ft 403 kts 166°
2026-04-15 16:49 49.91725 0.07197 31119 ft 398 kts 166°
2026-04-15 16:49 49.89053 0.08244 31739 ft 393 kts 166°
2026-04-15 16:49 49.86425 0.09274 32352 ft 387 kts 166°
2026-04-15 16:49 49.83841 0.10286 32965 ft 379 kts 166°
2026-04-15 16:50 49.81311 0.11276 33588 ft 371 kts 166°
2026-04-15 16:50 49.78841 0.12241 34179 ft 362 kts 166°
2026-04-15 16:50 49.76399 0.13193 34474 ft 363 kts 166°
2026-04-15 16:50 49.73943 0.14150 34655 ft 365 kts 166°
2026-04-15 16:51 49.71478 0.15108 34858 ft 367 kts 166°
2026-04-15 16:51 49.68992 0.16075 34983 ft 371 kts 166°
2026-04-15 16:51 49.66465 0.17064 35006 ft 379 kts 166°
2026-04-15 16:52 49.61256 0.19172 35001 ft 395 kts 166°
2026-04-15 16:52 49.55869 0.21351 35001 ft 401 kts 166°
2026-04-15 16:53 49.50483 0.23518 35006 ft 400 kts 166°
2026-04-15 16:53 49.45130 0.25662 35006 ft 400 kts 166°
2026-04-15 16:54 49.39747 0.27814 35000 ft 400 kts 166°
2026-04-15 16:54 49.34356 0.29963 35005 ft 401 kts 166°
2026-04-15 16:55 49.28953 0.32130 35005 ft 402 kts 165°
2026-04-15 16:55 49.23559 0.34419 35013 ft 402 kts 165°
2026-04-15 16:56 49.18164 0.36710 35017 ft 403 kts 165°
2026-04-15 16:56 49.12754 0.38987 35016 ft 403 kts 165°
2026-04-15 16:57 49.07382 0.41238 35020 ft 403 kts 165°
2026-04-15 16:57 49.01974 0.43500 35020 ft 403 kts 165°
2026-04-15 16:58 48.96565 0.45756 35015 ft 403 kts 165°
2026-04-15 16:58 48.91165 0.48004 35011 ft 402 kts 165°
2026-04-15 16:59 48.85767 0.50247 35005 ft 402 kts 165°
2026-04-15 16:59 48.80375 0.52481 35001 ft 401 kts 165°
2026-04-15 17:00 48.74983 0.54660 34994 ft 401 kts 166°
2026-04-15 17:00 48.69579 0.56759 34986 ft 400 kts 166°
2026-04-15 17:01 48.64182 0.58861 34993 ft 400 kts 166°
2026-04-15 17:01 48.58827 0.60951 34987 ft 400 kts 166°
2026-04-15 17:02 48.53445 0.63049 34985 ft 400 kts 166°
2026-04-15 17:02 48.48063 0.65191 35002 ft 399 kts 165°
2026-04-15 17:03 48.42698 0.67391 34987 ft 400 kts 165°
2026-04-15 17:03 48.37324 0.69581 34997 ft 400 kts 165°
2026-04-15 17:04 48.31948 0.71759 34998 ft 400 kts 165°
2026-04-15 17:04 48.26564 0.73934 34998 ft 401 kts 165°
2026-04-15 17:05 48.21178 0.76083 34999 ft 401 kts 166°
2026-04-15 17:05 48.15778 0.78200 35000 ft 401 kts 166°
2026-04-15 17:06 48.10402 0.80307 35002 ft 401 kts 166°
2026-04-15 17:06 48.04999 0.82425 35013 ft 402 kts 166°
2026-04-15 17:07 47.99593 0.84539 35008 ft 402 kts 166°
2026-04-15 17:07 47.94187 0.86649 35005 ft 402 kts 166°
2026-04-15 17:08 47.88777 0.88755 35008 ft 401 kts 166°
2026-04-15 17:08 47.83375 0.90855 35007 ft 401 kts 166°
2026-04-15 17:09 47.77967 0.92952 35011 ft 401 kts 166°
2026-04-15 17:09 47.72563 0.95042 35000 ft 401 kts 166°
2026-04-15 17:10 47.67167 0.97125 34998 ft 400 kts 166°
2026-04-15 17:10 47.61775 0.99202 34995 ft 400 kts 166°
2026-04-15 17:11 47.56419 1.01261 34997 ft 400 kts 166°
2026-04-15 17:11 47.51028 1.03329 34997 ft 400 kts 166°
2026-04-15 17:12 47.42912 1.06137 35000 ft 399 kts 174°
2026-04-15 17:12 47.37373 1.06340 34999 ft 398 kts 182°